Time,TemperatureF,DewpointF,PressureIn,WindDirection,WindDirectionDegrees,WindSpeedMPH,WindSpeedGustMPH,Humidity,HourlyPrecipIn,Conditions,Clouds,dailyrainin,SoftwareType,DateUTC
2013-04-25 02:11:00,51.0,18.0,30.00,NNW,348,2.0,3.0,27,0.00,,,0.00,,2013-04-25 08:11:00,
2013-04-25 02:21:00,51.0,19.0,29.99,NNW,339,1.0,3.0,28,0.00,,,0.00,,2013-04-25 08:21:00,
2013-04-25 02:31:00,51.0,20.0,29.99,SW,218,2.0,2.0,29,0.00,,,0.00,,2013-04-25 08:31:00,
2013-04-25 02:42:00,51.0,20.0,29.99,SW,218,2.0,2.0,29,0.00,,,0.00,,2013-04-25 08:42:00,
2013-04-25 02:52:00,51.0,21.0,29.98,NE,56,3.0,6.0,31,0.00,,,0.00,,2013-04-25 08:52:00,
2013-04-25 03:01:00,51.0,21.0,29.99,NNE,30,5.0,7.0,31,0.00,,,0.00,,2013-04-25 09:01:00,
2013-04-25 03:11:00,51.0,21.0,29.99,NNE,30,5.0,7.0,31,0.00,,,0.00,,2013-04-25 09:11:00,
2013-04-25 03:21:00,51.0,22.0,29.98,NNE,26,4.0,9.0,32,0.00,,,0.00,,2013-04-25 09:21:00,
2013-04-25 03:33:00,51.0,22.0,29.99,NNE,18,4.0,8.0,32,0.00,,,0.00,,2013-04-25 09:33:00,
2013-04-25 03:42:00,51.0,22.0,29.99,NNE,18,4.0,8.0,32,0.00,,,0.00,,2013-04-25 09:42:00,
2013-04-25 03:52:00,50.0,23.0,29.98,NE,39,7.0,10.0,34,0.00,,,0.00,,2013-04-25 09:52:00,
2013-04-25 04:02:00,50.0,23.0,29.98,NE,39,6.0,12.0,34,0.00,,,0.00,,2013-04-25 10:02:00,
2013-04-25 04:12:00,50.0,23.0,29.98,NE,39,6.0,12.0,34,0.00,,,0.00,,2013-04-25 10:12:00,
2013-04-25 04:22:00,49.0,23.0,29.98,NE,36,5.0,10.0,36,0.00,,,0.00,,2013-04-25 10:22:00,
2013-04-25 04:32:00,49.0,23.0,29.98,NNE,30,6.0,10.0,36,0.00,,,0.00,,2013-04-25 10:32:00,
2013-04-25 04:42:00,49.0,23.0,29.98,NNE,30,6.0,10.0,36,0.00,,,0.00,,2013-04-25 10:42:00,
2013-04-25 04:53:00,49.0,24.0,29.99,NE,44,5.0,12.0,37,0.00,,,0.00,,2013-04-25 10:53:00,
2013-04-25 05:02:00,49.0,24.0,29.98,NE,43,6.0,9.0,37,0.00,,,0.00,,2013-04-25 11:02:00,
2013-04-25 05:12:00,49.0,24.0,29.98,NE,43,6.0,9.0,37,0.00,,,0.00,,2013-04-25 11:12:00,
2013-04-25 05:22:00,48.0,24.0,29.99,NNE,22,6.0,10.0,38,0.00,,,0.00,,2013-04-25 11:22:00,
2013-04-25 05:32:00,48.0,24.0,29.99,NE,43,5.0,8.0,38,0.00,,,0.00,,2013-04-25 11:32:00,
2013-04-25 05:42:00,48.0,24.0,29.99,NE,43,5.0,8.0,38,0.00,,,0.00,,2013-04-25 11:42:00,
2013-04-25 05:52:00,48.0,24.0,29.99,ENE,57,5.0,9.0,38,0.00,,,0.00,,2013-04-25 11:52:00,
2013-04-25 06:01:00,48.0,24.0,29.99,NNE,26,3.0,9.0,38,0.00,,,0.00,,2013-04-25 12:01:00,
2013-04-25 06:12:00,48.0,24.0,29.99,NNE,26,3.0,9.0,38,0.00,,,0.00,,2013-04-25 12:12:00,
2013-04-25 06:21:00,47.0,23.0,29.99,NE,46,6.0,8.0,39,0.00,,,0.00,,2013-04-25 12:21:00,
2013-04-25 06:31:00,47.0,23.0,29.99,North,10,5.0,8.0,39,0.00,,,0.00,,2013-04-25 12:31:00,
2013-04-25 06:42:00,47.0,23.0,29.99,North,10,5.0,8.0,39,0.00,,,0.00,,2013-04-25 12:42:00,
2013-04-25 06:52:00,46.0,23.0,30.00,NNW,344,5.0,9.0,40,0.00,,,0.00,,2013-04-25 12:52:00,
2013-04-25 07:02:00,47.0,24.0,30.00,NNE,23,3.0,8.0,40,0.00,,,0.00,,2013-04-25 13:02:00,
2013-04-25 07:11:00,47.0,24.0,30.00,NNE,23,3.0,8.0,40,0.00,,,0.00,,2013-04-25 13:11:00,
2013-04-25 07:21:00,47.0,25.0,30.00,ENE,67,9.0,10.0,41,0.00,,,0.00,,2013-04-25 13:21:00,
2013-04-25 07:32:00,48.0,25.0,30.01,NNE,31,7.0,12.0,40,0.00,,,0.00,,2013-04-25 13:32:00,
2013-04-25 07:42:00,48.0,25.0,30.01,NNE,31,7.0,12.0,40,0.00,,,0.00,,2013-04-25 13:42:00,
2013-04-25 07:52:00,48.0,24.0,30.01,North,2,4.0,9.0,39,0.00,,,0.00,,2013-04-25 13:52:00,
2013-04-25 08:01:00,49.0,25.0,30.01,NNE,30,6.0,9.0,39,0.00,,,0.00,,2013-04-25 14:01:00,
2013-04-25 08:11:00,49.0,25.0,30.01,NNE,30,6.0,9.0,39,0.00,,,0.00,,2013-04-25 14:11:00,
2013-04-25 08:21:00,50.0,26.0,30.02,NNE,26,8.0,10.0,39,0.00,,,0.00,,2013-04-25 14:21:00,
2013-04-25 08:32:00,51.0,26.0,30.02,ENE,66,6.0,10.0,38,0.00,,,0.00,,2013-04-25 14:32:00,
2013-04-25 08:42:00,51.0,26.0,30.02,ENE,66,6.0,10.0,38,0.00,,,0.00,,2013-04-25 14:42:00,
2013-04-25 08:52:00,52.0,27.0,30.03,NE,43,6.0,12.0,37,0.00,,,0.00,,2013-04-25 14:52:00,
2013-04-25 09:02:00,52.0,27.0,30.03,NNE,31,6.0,10.0,37,0.00,,,0.00,,2013-04-25 15:02:00,
2013-04-25 09:11:00,52.0,27.0,30.03,NNE,31,6.0,10.0,37,0.00,,,0.00,,2013-04-25 15:11:00,
2013-04-25 09:21:00,53.0,27.0,30.03,ENE,57,6.0,9.0,36,0.00,,,0.00,,2013-04-25 15:21:00,
2013-04-25 09:33:00,53.0,27.0,30.03,NE,48,6.0,10.0,36,0.00,,,0.00,,2013-04-25 15:33:00,
2013-04-25 09:42:00,53.0,27.0,30.03,NE,48,6.0,10.0,36,0.00,,,0.00,,2013-04-25 15:42:00,
2013-04-25 09:53:00,54.0,27.0,30.03,ENE,59,8.0,12.0,35,0.00,,,0.00,,2013-04-25 15:53:00,
2013-04-25 10:02:00,55.0,27.0,30.03,NE,51,6.0,12.0,34,0.00,,,0.00,,2013-04-25 16:02:00,
2013-04-25 10:13:00,55.0,27.0,30.03,NE,51,6.0,12.0,34,0.00,,,0.00,,2013-04-25 16:13:00,
2013-04-25 10:24:00,56.0,27.0,30.03,North,11,3.0,10.0,33,0.00,,,0.00,,2013-04-25 16:24:00,
2013-04-25 10:32:00,56.0,27.0,30.02,NNE,30,5.0,10.0,33,0.00,,,0.00,,2013-04-25 16:32:00,
2013-04-25 10:42:00,56.0,27.0,30.02,NNE,30,5.0,10.0,33,0.00,,,0.00,,2013-04-25 16:42:00,
2013-04-25 10:52:00,56.0,27.0,30.02,NNE,16,6.0,12.0,33,0.00,,,0.00,,2013-04-25 16:52:00,
2013-04-25 11:02:00,57.0,27.0,30.02,NE,45,8.0,10.0,32,0.00,,,0.00,,2013-04-25 17:02:00,
2013-04-25 11:11:00,57.0,27.0,30.02,NE,45,8.0,10.0,32,0.00,,,0.00,,2013-04-25 17:11:00,
2013-04-25 11:22:00,60.0,28.0,30.02,NNE,16,8.0,10.0,29,0.00,,,0.00,,2013-04-25 17:22:00,
2013-04-25 11:32:00,60.0,28.0,30.02,NE,49,6.0,10.0,29,0.00,,,0.00,,2013-04-25 17:32:00,
2013-04-25 11:42:00,60.0,28.0,30.02,NE,49,6.0,10.0,29,0.00,,,0.00,,2013-04-25 17:42:00,
2013-04-25 11:53:00,61.0,28.0,30.01,ENE,64,5.0,9.0,28,0.00,,,0.00,,2013-04-25 17:53:00,
2013-04-25 12:01:00,61.0,28.0,30.00,NNE,27,5.0,12.0,28,0.00,,,0.00,,2013-04-25 18:01:00,
2013-04-25 12:11:00,61.0,28.0,30.00,NNE,27,5.0,12.0,28,0.00,,,0.00,,2013-04-25 18:11:00,
2013-04-25 12:22:00,65.0,29.0,29.99,ENE,63,5.0,12.0,26,0.00,,,0.00,,2013-04-25 18:22:00,
2013-04-25 12:32:00,66.0,29.0,29.98,NE,46,6.0,9.0,25,0.00,,,0.00,,2013-04-25 18:32:00,
2013-04-25 12:42:00,66.0,29.0,29.98,NE,46,6.0,9.0,25,0.00,,,0.00,,2013-04-25 18:42:00,
2013-04-25 12:53:00,69.0,30.0,29.98,East,96,4.0,9.0,23,0.00,,,0.00,,2013-04-25 18:53:00,
2013-04-25 13:01:00,69.0,30.0,29.97,SSE,151,3.0,7.0,23,0.00,,,0.00,,2013-04-25 19:01:00,
2013-04-25 13:12:00,69.0,30.0,29.97,SSE,151,3.0,7.0,23,0.00,,,0.00,,2013-04-25 19:12:00,
2013-04-25 13:21:00,70.0,30.0,29.96,SE,139,3.0,7.0,23,0.00,,,0.00,,2013-04-25 19:21:00,
2013-04-25 13:31:00,71.0,30.0,29.95,ENE,76,4.0,6.0,22,0.00,,,0.00,,2013-04-25 19:31:00,
2013-04-25 13:42:00,71.0,30.0,29.95,ENE,76,4.0,6.0,22,0.00,,,0.00,,2013-04-25 19:42:00,
2013-04-25 13:52:00,71.0,30.0,29.94,ENE,71,4.0,8.0,22,0.00,,,0.00,,2013-04-25 19:52:00,
2013-04-25 14:02:00,72.0,31.0,29.93,East,88,4.0,8.0,22,0.00,,,0.00,,2013-04-25 20:02:00,
2013-04-25 14:11:00,72.0,31.0,29.93,East,88,4.0,8.0,22,0.00,,,0.00,,2013-04-25 20:11:00,
2013-04-25 14:22:00,72.0,31.0,29.92,ESE,110,5.0,10.0,22,0.00,,,0.00,,2013-04-25 20:22:00,
2013-04-25 14:32:00,72.0,30.0,29.91,ENE,76,7.0,10.0,21,0.00,,,0.00,,2013-04-25 20:32:00,
2013-04-25 14:42:00,72.0,30.0,29.91,ENE,76,7.0,10.0,21,0.00,,,0.00,,2013-04-25 20:42:00,
2013-04-25 14:52:00,72.0,31.0,29.90,East,82,6.0,10.0,22,0.00,,,0.00,,2013-04-25 20:52:00,
2013-04-25 15:01:00,73.0,32.0,29.89,SE,138,5.0,10.0,22,0.00,,,0.00,,2013-04-25 21:01:00,
2013-04-25 15:11:00,73.0,32.0,29.89,SE,138,5.0,10.0,22,0.00,,,0.00,,2013-04-25 21:11:00,
2013-04-25 15:22:00,73.0,31.0,29.87,NE,50,7.0,10.0,21,0.00,,,0.00,,2013-04-25 21:22:00,
2013-04-25 15:33:00,73.0,31.0,29.85,ENE,70,4.0,9.0,21,0.00,,,0.00,,2013-04-25 21:33:00,
2013-04-25 15:42:00,73.0,31.0,29.85,ENE,70,4.0,9.0,21,0.00,,,0.00,,2013-04-25 21:42:00,
2013-04-25 15:53:00,73.0,31.0,29.84,NE,54,6.0,10.0,21,0.00,,,0.00,,2013-04-25 21:53:00,
2013-04-25 16:02:00,71.0,30.0,29.83,NNE,19,4.0,8.0,22,0.00,,,0.00,,2013-04-25 22:02:00,
2013-04-25 16:12:00,71.0,30.0,29.83,NNE,19,4.0,8.0,22,0.00,,,0.00,,2013-04-25 22:12:00,
2013-04-25 16:22:00,71.0,30.0,29.83,East,99,5.0,7.0,22,0.00,,,0.00,,2013-04-25 22:22:00,
2013-04-25 16:33:00,70.0,29.0,29.83,ESE,117,3.0,7.0,22,0.00,,,0.00,,2013-04-25 22:33:00,
2013-04-25 16:42:00,70.0,29.0,29.83,ESE,117,3.0,7.0,22,0.00,,,0.00,,2013-04-25 22:42:00,
2013-04-25 16:53:00,70.0,29.0,29.83,ENE,68,2.0,3.0,22,0.00,,,0.00,,2013-04-25 22:53:00,
2013-04-25 17:02:00,70.0,29.0,29.81,ENE,60,4.0,8.0,22,0.00,,,0.00,,2013-04-25 23:02:00,
2013-04-25 17:12:00,70.0,29.0,29.81,ENE,60,4.0,8.0,22,0.00,,,0.00,,2013-04-25 23:12:00,
2013-04-25 17:22:00,70.0,29.0,29.81,SSE,148,2.0,6.0,22,0.00,,,0.00,,2013-04-25 23:22:00,
2013-04-25 17:32:00,70.0,26.0,29.81,South,185,6.0,13.0,19,0.00,,,0.00,,2013-04-25 23:32:00,
2013-04-25 17:42:00,70.0,26.0,29.81,South,185,6.0,13.0,19,0.00,,,0.00,,2013-04-25 23:42:00,
2013-04-25 17:52:00,71.0,25.0,29.81,SE,139,9.0,12.0,18,0.00,,,0.00,,2013-04-25 23:52:00,
2013-04-25 18:01:00,71.0,25.0,29.81,SE,139,9.0,12.0,18,0.00,,,0.00,,2013-04-26 00:01:00,
2013-04-25 18:11:00,71.0,25.0,29.81,SE,139,9.0,12.0,18,0.00,,,0.00,,2013-04-26 00:11:00,
2013-04-25 18:21:00,72.0,25.0,29.79,South,187,9.0,15.0,17,0.00,,,0.00,,2013-04-26 00:21:00,
2013-04-25 18:32:00,72.0,25.0,29.78,SSE,167,12.0,18.0,17,0.00,,,0.00,,2013-04-26 00:32:00,
2013-04-25 18:42:00,72.0,25.0,29.78,SSE,167,12.0,18.0,17,0.00,,,0.00,,2013-04-26 00:42:00,
2013-04-25 18:52:00,72.0,25.0,29.79,SSE,164,12.0,22.0,17,0.00,,,0.00,,2013-04-26 00:52:00,
2013-04-25 19:01:00,72.0,23.0,29.79,SW,221,7.0,16.0,16,0.00,,,0.00,,2013-04-26 01:01:00,
2013-04-25 19:11:00,72.0,23.0,29.79,SW,221,7.0,16.0,16,0.00,,,0.00,,2013-04-26 01:11:00,
2013-04-25 19:21:00,72.0,18.0,29.80,SW,225,8.0,15.0,13,0.00,,,0.00,,2013-04-26 01:21:00,
2013-04-25 19:31:00,72.0,17.0,29.80,NW,306,10.0,18.0,12,0.00,,,0.00,,2013-04-26 01:31:00,
2013-04-25 19:42:00,72.0,17.0,29.80,NW,306,10.0,18.0,12,0.00,,,0.00,,2013-04-26 01:42:00,
2013-04-25 19:52:00,71.0,18.0,29.81,WNW,301,7.0,14.0,13,0.00,,,0.00,,2013-04-26 01:52:00,
2013-04-25 20:02:00,71.0,18.0,29.81,WNW,293,10.0,12.0,13,0.00,,,0.00,,2013-04-26 02:02:00,
2013-04-25 20:11:00,71.0,18.0,29.81,WNW,293,10.0,12.0,13,0.00,,,0.00,,2013-04-26 02:11:00,
2013-04-25 20:21:00,70.0,20.0,29.81,WNW,296,6.0,10.0,15,0.00,,,0.00,,2013-04-26 02:21:00,
2013-04-25 20:32:00,69.0,21.0,29.81,NW,324,7.0,9.0,16,0.00,,,0.00,,2013-04-26 02:32:00,
2013-04-25 20:42:00,69.0,21.0,29.81,NW,324,7.0,9.0,16,0.00,,,0.00,,2013-04-26 02:42:00,
2013-04-25 20:52:00,67.0,22.0,29.83,NW,311,7.0,10.0,18,0.00,,,0.00,,2013-04-26 02:52:00,
2013-04-25 21:01:00,66.0,21.0,29.84,NW,306,5.0,8.0,18,0.00,,,0.00,,2013-04-26 03:01:00,
2013-04-25 21:11:00,66.0,21.0,29.84,NW,306,5.0,8.0,18,0.00,,,0.00,,2013-04-26 03:11:00,
2013-04-25 21:21:00,65.0,26.0,29.86,NW,323,15.0,18.0,23,0.00,,,0.00,,2013-04-26 03:21:00,
2013-04-25 21:33:00,63.0,27.0,29.87,NW,326,11.0,17.0,25,0.00,,,0.00,,2013-04-26 03:33:00,
2013-04-25 21:43:00,63.0,27.0,29.87,NW,326,11.0,17.0,25,0.00,,,0.00,,2013-04-26 03:43:00,
2013-04-25 21:53:00,62.0,29.0,29.89,NW,323,7.0,13.0,28,0.00,,,0.00,,2013-04-26 03:53:00,
2013-04-25 22:02:00,61.0,29.0,29.90,NNW,331,7.0,13.0,30,0.00,,,0.00,,2013-04-26 04:02:00,
2013-04-25 22:12:00,61.0,29.0,29.90,NNW,331,7.0,13.0,30,0.00,,,0.00,,2013-04-26 04:12:00,
2013-04-25 22:23:00,60.0,29.0,29.92,NNW,331,6.0,12.0,31,0.00,,,0.00,,2013-04-26 04:23:00,
2013-04-25 22:32:00,59.0,29.0,29.93,NW,321,5.0,12.0,32,0.00,,,0.00,,2013-04-26 04:32:00,
2013-04-25 22:43:00,59.0,29.0,29.93,NW,321,5.0,12.0,32,0.00,,,0.00,,2013-04-26 04:43:00,
2013-04-25 22:53:00,58.0,28.0,29.94,NNW,330,7.0,8.0,32,0.00,,,0.00,,2013-04-26 04:53:00,
2013-04-25 23:02:00,58.0,29.0,29.94,NNW,335,7.0,10.0,33,0.00,,,0.00,,2013-04-26 05:02:00,
2013-04-25 23:12:00,58.0,29.0,29.94,NNW,335,7.0,10.0,33,0.00,,,0.00,,2013-04-26 05:12:00,
2013-04-25 23:22:00,58.0,31.0,29.95,NW,313,6.0,8.0,35,0.00,,,0.00,,2013-04-26 05:22:00,
2013-04-25 23:32:00,57.0,30.0,29.95,NNW,343,5.0,8.0,36,0.00,,,0.00,,2013-04-26 05:32:00,
2013-04-25 23:42:00,57.0,30.0,29.95,NNW,343,5.0,8.0,36,0.00,,,0.00,,2013-04-26 05:42:00,
2013-04-25 23:52:00,56.0,31.0,29.96,North,351,4.0,6.0,38,0.00,,,0.00,,2013-04-26 05:52:00,